Location: Newark
(34.1333°N, 7.9667°W)
Time: 06:20:51
(UTC+00:00)

Vanguard 1 Rocket - All Passes

Search period start: 15 June 2021 00:00
Search period end: 25 June 2021 00:00
Orbit: 651 x 4225 km, 34.3° (Epoch: 14 June)

Date Brightness Start Highest point End Pass type
(mag) Time Alt. Az. Time Alt. Az. Time Alt. Az.
15 Jun - 01:09:28 10° W 01:23:13 89° N 01:48:17 10° E visible
15 Jun - 03:36:21 10° WNW 03:55:43 77° SSW 04:22:11 10° ESE visible
15 Jun - 06:06:08 10° WNW 06:27:48 44° SW 06:49:47 10° SSE daylight
15 Jun - 08:48:36 10° WSW 08:56:52 12° SW 09:04:40 10° SW daylight
15 Jun - 21:34:43 10° SW 21:42:13 47° SE 21:56:26 10° ENE visible
15 Jun - 23:58:17 10° WSW 00:09:25 87° S 00:31:34 10° E visible
16 Jun - 02:24:11 10° W 02:40:36 85° SSW 03:07:04 10° ESE visible
16 Jun - 04:52:10 10° WNW 05:13:07 58° SSW 05:37:48 10° SE visible
16 Jun - 07:26:01 10° W 07:43:36 24° SW 08:00:16 10° S daylight
16 Jun - 20:25:44 10° S 20:31:27 26° SE 20:40:35 10° E visible
16 Jun - 22:47:35 10° WSW 22:56:36 76° SSE 23:15:03 10° ENE visible
17 Jun - 01:12:32 10° W 01:26:03 90° N 01:50:53 10° E visible
17 Jun - 03:39:18 10° WNW 03:58:08 70° SSW 04:24:19 10° SE visible
17 Jun - 06:09:29 10° W 06:29:43 37° SW 06:50:50 10° SSE daylight
17 Jun - 19:20:18 10° SE 19:21:13 10° SE 19:22:11 10° ESE daylight
17 Jun - 21:37:25 10° SW 21:44:45 56° SSE 21:59:08 10° ENE visible
18 Jun - 00:01:22 10° W 00:12:18 90° NW 00:34:10 10° E visible
18 Jun - 02:27:11 10° W 02:43:14 80° SSW 03:09:27 10° ESE visible
18 Jun - 04:55:14 10° WNW 05:15:14 50° SW 05:39:19 10° SSE daylight
18 Jun - 07:31:19 10° W 07:45:29 18° SW 07:59:22 10° SSW daylight
18 Jun - 20:27:58 10° SSW 20:33:47 34° SE 20:43:44 10° E visible
18 Jun - 22:50:36 10° WSW 22:59:26 83° SSE 23:17:38 10° E visible
19 Jun - 01:15:38 10° W 01:28:52 88° S 01:53:25 10° ESE visible
19 Jun - 03:42:18 10° WNW 04:00:29 62° SSW 04:26:11 10° SE visible
19 Jun - 06:13:15 10° W 06:31:40 30° SW 06:51:21 10° S daylight
19 Jun - 19:19:58 10° SSE 19:23:28 15° SE 19:28:01 10° E daylight
19 Jun - 21:40:16 10° SW 21:47:27 66° SSE 22:01:47 10° ENE visible
20 Jun - 00:04:29 10° W 00:15:13 89° N 00:36:47 10° E visible
20 Jun - 02:30:13 10° WNW 02:45:51 74° SSW 03:11:37 10° ESE visible
20 Jun - 04:58:30 10° W 05:17:22 42° SW 05:40:27 10° SSE daylight
20 Jun - 07:39:17 10° WSW 07:47:34 12° SW 07:55:53 10° SSW daylight
20 Jun - 20:30:29 10° SW 20:36:18 43° SE 20:46:41 10° ENE visible
20 Jun - 22:53:42 10° W 23:02:21 88° S 23:20:16 10° E visible
21 Jun - 01:18:42 10° W 01:31:40 84° SSW 01:55:51 10° ESE visible
21 Jun - 03:45:23 10° WNW 04:02:50 55° SSW 04:27:46 10° SE visible
21 Jun - 06:17:41 10° W 06:33:43 23° SW 06:51:06 10° S daylight
21 Jun - 19:21:36 10° S 19:25:50 21° SE 19:31:53 10° E daylight
21 Jun - 21:43:15 10° WSW 21:50:17 76° SSE 22:04:27 10° E visible
22 Jun - 00:07:37 10° W 00:18:09 90° S 00:39:23 10° E visible
22 Jun - 02:33:15 10° WNW 02:48:24 67° SSW 03:13:34 10° SE visible
22 Jun - 05:02:03 10° W 05:19:33 35° SW 05:41:09 10° SSE daylight
22 Jun - 20:33:13 10° SW 20:38:59 53° SSE 20:49:31 10° ENE visible
22 Jun - 22:56:50 10° W 23:05:20 89° N 23:22:55 10° E visible
23 Jun - 01:21:47 10° W 01:34:25 78° SSW 01:58:08 10° ESE visible
23 Jun - 03:48:36 10° W 04:05:12 46° SSW 04:28:59 10° SSE visible
23 Jun - 06:23:22 10° WSW 06:35:57 17° SW 06:49:34 10° SSW daylight
23 Jun - 19:23:47 10° SSW 19:28:20 29° SE 19:35:14 10° E daylight
23 Jun - 21:46:19 10° WSW 21:53:13 83° SSE 22:07:08 10° E visible
24 Jun - 00:10:44 10° W 00:21:03 86° S 00:41:54 10° ESE visible
24 Jun - 02:36:21 10° W 02:50:58 58° SSW 03:15:14 10° SE visible
24 Jun - 05:06:04 10° W 05:21:50 27° SW 05:41:13 10° S daylight
24 Jun - 18:16:06 10° SSE 18:18:03 12° SE 18:20:15 10° ESE daylight
24 Jun - 20:36:07 10° WSW 20:41:47 64° SSE 20:52:19 10° E visible
24 Jun - 23:00:00 10° W 23:08:20 89° N 23:25:35 10° E visible
